EB1TR-13 Weather Reports


time (UTC)temp
C
wind
direction
speed
KPH
gust
KPH
rain 1hr
cm
rain 24hr
cm
rain mn
cm
humidity
%
barometer
mb
20260506215946 13 154 3.2 3.2 0.00 0.00 0.00 91 1014.0
20260506214445 13 133 1.6 1.6 0.00 0.00 0.00 89 1014.0
20260506212946 13 133 1.6 1.6 0.00 0.00 0.00 90 1015.0
20260506211446 13 133 1.6 1.6 0.00 0.00 0.00 89 1014.0
20260506205946 13 102 1.6 1.6 0.00 0.00 0.00 86 1014.0
20260506204446 13 102 1.6 1.6 0.00 0.00 0.00 86 1014.0
20260506202946 13 102 1.6 1.6 0.00 0.00 0.00 86 1014.0
20260506201446 13 102 1.6 1.6 0.00 0.00 0.00 86 1014.0
20260506195946 13 102 1.6 1.6 0.00 0.00 0.00 86 1014.0
20260506194446 15 109 1.6 1.6 0.00 0.00 0.00 82 1014.0
20260506192946 15 109 1.6 3.2 0.00 0.00 0.00 80 1014.0
20260506191446 15 31 1.6 1.6 0.00 0.00 0.00 80 1014.0
20260506185946 15 31 3.2 3.2 0.00 0.00 0.00 79 1014.0
20260506184450 15 33 1.6 4.8 0.00 0.00 0.00 79 1014.0
20260506182945 15 346 1.6 3.2 0.00 0.00 0.00 79 1014.0
20260506181446 15 345 3.2 6.4 0.00 0.00 0.00 79 1014.0
20260506175946 15 355 1.6 6.4 0.00 0.00 0.00 79 1014.0
20260506174446 16 355 3.2 9.7 0.00 0.00 0.00 79 1014.0
20260506172946 16 355 4.8 9.7 0.00 0.00 0.00 78 1014.0
20260506171445 16 306 3.2 8.0 0.00 0.00 0.00 77 1014.0
20260506165946 16 294 3.2 9.7 0.00 0.00 0.00 78 1014.0
20260506164446 16 19 3.2 11.3 0.00 0.00 0.00 77 1014.0
20260506162946 17 310 1.6 8.0 0.00 0.00 0.00 74 1014.0
20260506161446 17 313 3.2 6.4 0.00 0.00 0.00 73 1014.0
20260506154446 17 313 6.4 11.3 0.00 0.00 0.00 73 1014.0
20260506152946 17 316 4.8 9.7 0.00 0.00 0.00 73 1014.0
20260506151446 16 292 4.8 9.7 0.00 0.00 0.00 74 1014.0
20260506145946 16 327 4.8 11.3 0.00 0.00 0.00 74 1014.0
20260506144449 16 343 6.4 14.5 0.00 0.00 0.00 75 1014.0
20260506142946 16 282 8.0 12.9 0.00 0.00 0.00 75 1015.0
20260506141446 16 351 6.4 14.5 0.00 0.00 0.00 75 1015.0
20260506135946 16 298 6.4 14.5 0.00 0.00 0.00 75 1014.0
20260506134445 16 286 4.8 11.3 0.00 0.00 0.00 77 1014.0
20260506132946 16 298 4.8 11.3 0.00 0.00 0.00 78 1015.0
20260506131445 16 295 3.2 11.3 0.00 0.00 0.00 77 1015.0
20260506125946 16 333 3.2 6.4 0.00 0.00 0.00 77 1015.0
20260506124446 16 333 4.8 9.7 0.00 0.00 0.00 76 1015.0
20260506122946 16 348 3.2 11.3 0.00 0.00 0.00 75 1015.0
20260506121446 16 258 3.2 9.7 0.00 0.00 0.00 74 1015.0
20260506115946 16 292 6.4 11.3 0.00 0.00 0.00 71 1015.0
20260506114446 16 304 3.2 9.7 0.00 0.00 0.00 72 1015.0
20260506112946 16 311 4.8 11.3 0.00 0.00 0.00 73 1015.0
20260506111446 16 297 3.2 6.4 0.00 0.00 0.00 74 1015.0
20260506105946 16 271 3.2 6.4 0.00 0.00 0.00 73 1015.0
20260506104446 16 271 4.8 11.3 0.00 0.00 0.00 72 1015.0
20260506102946 15 261 4.8 9.7 0.00 0.00 0.00 72 1015.0
20260506101446 15 230 3.2 8.0 0.00 0.00 0.00 73 1015.0
20260506095946 15 297 3.2 6.4 0.00 0.00 0.00 74 1015.0
20260506094446 15 227 3.2 9.7 0.00 0.00 0.00 75 1015.0
20260506092946 15 194 1.6 6.4 0.00 0.00 0.00 76 1015.0
20260506091446 15 211 1.6 4.8 0.00 0.00 0.00 77 1015.0
20260506085946 14 211 3.2 8.0 0.00 0.00 0.00 78 1015.0
20260506084446 13 181 1.6 6.4 0.00 0.00 0.00 80 1015.0
20260506082946 13 186 1.6 6.4 0.00 0.00 0.00 83 1015.0
20260506081446 12 186 3.2 6.4 0.00 0.00 0.00 85 1015.0
20260506072946 12 216 3.2 4.8 0.00 0.00 0.00 84 1015.0
20260506071446 12 218 1.6 4.8 0.00 0.00 0.00 84 1015.0
20260506061446 11 218 1.6 1.6 0.00 0.00 0.00 89 1015.0
20260506044446 11 217 1.6 3.2 0.00 0.00 0.00 92 1015.0
20260506042946 11 217 1.6 3.2 0.00 0.00 0.00 92 1015.0
20260506041446 11 217 1.6 6.4 0.00 0.00 0.00 92 1015.0
20260506035946 11 217 1.6 6.4 0.00 0.00 0.00 92 1015.0
20260506034446 11 238 1.6 3.2 0.00 0.00 0.00 90 1015.0
20260506032946 11 238 1.6 3.2 0.00 0.00 0.00 90 1015.0
20260506031446 11 238 1.6 4.8 0.00 0.00 0.00 90 1015.0
20260506025946 11 238 1.6 3.2 0.00 0.00 0.00 91 1015.0
20260506024446 11 235 1.6 3.2 0.00 0.00 0.00 91 1015.0
20260506022946 11 243 1.6 1.6 0.00 0.00 0.00 91 1015.0
20260506021446 11 243 1.6 3.2 0.00 0.00 0.00 91 1015.0
20260506015946 11 238 1.6 1.6 0.00 0.00 0.00 91 1015.0
20260506014446 11 238 1.6 3.2 0.00 0.00 0.00 91 1015.0
20260506012946 11 265 1.6 3.2 0.00 0.00 0.00 91 1016.0
20260506011446 11 239 1.6 1.6 0.00 0.00 0.00 93 1016.0
20260506005946 11 239 1.6 3.2 0.00 0.00 0.00 93 1016.0
20260506004446 11 239 1.6 6.4 0.00 0.00 0.00 93 1016.0
20260506002946 11 240 1.6 3.2 0.00 0.00 0.00 92 1016.0
20260506001446 11 242 1.6 4.8 0.00 0.00 0.00 92 1016.0
20260505235946 11 249 1.6 3.2 0.00 0.00 0.00 92 1016.0
20260505234446 12 249 3.2 6.4 0.00 0.00 0.00 91 1016.0
20260505232946 12 244 1.6 3.2 0.00 0.00 0.00 91 1016.0
20260505231446 12 244 3.2 4.8 0.00 0.00 0.00 92 1016.0
20260505225945 12 248 1.6 3.2 0.00 0.00 0.00 92 1016.0
20260505224446 12 250 1.6 3.2 0.00 0.00 0.00 90 1016.0
20260505222946 12 243 1.6 3.2 0.00 0.00 0.00 89 1016.0
20260505221445 12 250 1.6 3.2 0.00 0.00 0.00 89 1016.0